Погода в Тупике

Россия / Забайкальский край     54°25′35″N   119°56′20″E
темп.,
°C
ветер,
м/с
пор.,
м/с
влажн.,
%
обл.,
%
осадки,
мм/ч
давл.,
гПа
погр.,
м
22 октября, пт
пт2200:00−2зюз11745 0.0 102312
03:00−2зюз22755 0.0 102315
06:00−2зюз227824 0.0 102318
09:00−1юз237210 0.0 102375
12:00+4зюз24545 0.0 1020355
15:00+8зюз254753 0.0 1017651
18:00+2з126693 0.0 101910
21:000зюз227627 0.0 101917
23 октября, сб
сб2300:00−1зюз22765 0.0 101913
03:00−1зюз22785 0.0 101914
06:00−2зюз11795 0.0 102010
09:000зюз12744 0.0 102145
12:00+4з12555 0.0 1019405
15:00+6з12505 0.0 1018595
18:00+1сз11705 0.0 101910
21:00−1юз22785 0.0 102010
24 октября, вс
вс2400:00−1юз22825 0.0 102013
03:00−2юз118229 0.0 101910
06:00−2юз118270 0.0 101810
09:00−1ююз117579 0.0 101847
12:00+3юз125638 0.0 1016343
15:00+5зюз125119 0.0 1013533
18:00+1ю007235 0.0 101410
21:00−1ююз22856 0.0 101511
25 октября, пн
пн2500:00−2юз22872 0.0 101413
03:00−2юз22835 0.0 101414
06:00−2юз228297 0.0 101314
09:00−1юз127648 0.0 101365
12:00+3зюз1257100 0.0 1011403
15:00+4зсз2451100 0.0 1010802
18:000з1168100 0.0 101110
21:00−1з2272100 0.0 101218
26 октября, вт
вт2600:00−1сз1174100 0.0 101211
03:00−2з1177100 0.0 101310
06:00−2зюз117743 0.0 101410
09:00−2зюз127283 0.0 101554
12:00+2зюз235090 0.0 1013607
15:00+4з2439100 0.0 10101093
18:00−1сз1157100 0.0 101010
21:00−1зсз0060100 0.0 101010